Location: North Smoke Tower Site
(30.5430°N, 82.3390°W)
Time: 16:30:50
(UTC-04:00)

Cosmos 1980 Rocket - Visible Passes

Search period start: 25 May 2018 00:00
Search period end: 04 June 2018 00:00
Orbit: 830 x 849 km, 71.0° (Epoch: 24 May)

Date Brightness Start Highest point End Pass type
(mag) Time Alt. Az. Time Alt. Az. Time Alt. Az.
25 May 2.3 21:27:28 10° NNW 21:33:08 76° WSW 21:38:25 12° SSE visible
26 May 2.3 21:11:46 10° NNW 21:17:27 82° WSW 21:23:07 10° SSE visible
27 May 2.3 20:56:05 10° NNW 21:01:46 88° WSW 21:07:27 10° SSE visible
30 May 5.2 21:57:44 10° W 21:57:57 10° W 21:58:12 10° W visible
31 May 5.0 21:40:45 10° W 21:42:19 11° W 21:43:53 10° WSW visible
01 Jun 4.9 21:24:30 10° WNW 21:26:40 12° W 21:28:51 10° WSW visible
02 Jun 4.9 21:08:24 10° WNW 21:11:02 13° W 21:13:39 10° SW visible
03 Jun 4.9 20:52:23 10° WNW 20:55:23 15° W 20:58:22 10° SW visible
